Other Surface Observations
Issued by NWS Tucson, AZ

Current Version | Previous Version | Text Only | Print | Product List | Glossary On
Versions: 1 2 3 4 5 6 7 8 9 10 11 12 13 14 15 16 17 18 19 20 21 22 23 24 25 26 27 28 29 30 31 32 33 34 35 36 37 38 39 40 41 42 43 44 45 46 47 48 49 50
502
SXUS55 KTWC 212015
OSOTWC

WEATHER ROUNDUP FOR SOUTHEAST ARIZONA
NATIONAL WEATHER SERVICE TUCSON AZ
115 PM MST TUE NOV 21 2017

AZZ504>506-514-212115-
LOCATION       SKY/WX    TMP DP  RH WIND       PRES   REMARKS
TUCSON         SUNNY     74  23  15 VRB5      30.12F
DAVIS-MONTHAN  MOSUNNY   77  22  13 CALM      30.10F
CHILDRENS PARK N/A      N/A N/A  20 SE1               PIMA CO DEQ
ALVERNON/22ND  N/A       71 N/A N/A N1                PIMA CO DEQ
CHERRY/GLENN   N/A       72 N/A N/A NE1               PIMA CO DEQ
TANGERINE      N/A       71 N/A N/A SW1               PIMA CO DEQ
CONTL RANCH    N/A       70  26  19 NW1               PIMA CO DEQ
GRANT/1ST      N/A       70  26  19 SE2               PIMA CO DEQ
CRAYCROFT/22ND N/A       72  26  18 N3                PIMA CO DEQ
GOLFLINKS/KOLB N/A       70  25  18 N0                PIMA CO DEQ
AJO/12TH       N/A       70  27  20 E2                PIMA CO DEQ
FAIRGROUNDS    N/A       70 N/A N/A SW3               PIMA CO DEQ
SAGUARO        N/A       75  26  16 S3                *SABINO CYN
SAN CARLOS     N/A       71  19  14 S7                *SAN CARLOS
GREEN VALLEY   N/A       71  27  19 NE4               PIMA CO DEQ
HORSE CAMP CYN N/A       72  17  12 NE3               *ARAVAIPA CYN
RINCON MTNS    N/A       63  19  18 NE4G13            *NR MANNING CAMP
$$

AZZ509>511-212115-
LOCATION       SKY/WX    TMP DP  RH WIND       PRES   REMARKS
SAFFORD        SUNNY     70  15  12 NW7       30.11F
STRAY HORSE    N/A       64  22  20 NE3G13            *
TRAIL CABIN    N/A       69  18  14 SE3G10            *N OF GRANVILLE
BLACK HILLS    NOT AVBL
DRY LAKE       N/A       67  19  16 NW3               *NATANES MTNS
NOON CREEK     N/A       72  18  13 NE4               *PINALENO MTNS
COLUMBINE      N/A       62  17  17 E3G10             *PINALENO MTNS
GUTHRIE        N/A       65  18  16 NE8G18            *SW OF GUTHRIE
$$

AZZ502-503-513-212115-
LOCATION       SKY/WX    TMP DP  RH WIND       PRES   REMARKS
NOGALES        MOSUNNY   74  18  12 SW6       30.13F
SELLS          N/A       80  13   8 E3G11             *
SASABE         N/A       74  18  12 NE5G11            *ALTAR VLY
HOPKINS        N/A       73  17  12 SE3G10            *SANTA RITA MTNS
CARR CYN       N/A       69   8   9 NW3               *W OF HEREFORD
$$

AZZ507-508-512-212115-
LOCATION       SKY/WX    TMP DP  RH WIND       PRES   REMARKS
SIERRA VISTA   MOSUNNY   72   7   8 CALM      30.18F
DOUGLAS        MOSUNNY   71  15  11 VRB3      30.14F
EMPIRE MTNS    NOT AVBL
MULESHOE RANCH N/A       72  17  12 W4G11             *PRESERVE
HEADQUARTERS   N/A       73  15  11 SW5G11            *CHIRICAHUA MTNS
$$

.............................NOTES.............................
THIS IS AN AUTOMATED COLLECTIVE WITH MINIMAL QUALITY CONTROL.
PIMA CO DEQ SITES HAVE NONSTANDARD WIND SENSOR HEIGHTS.
PIMA CO DEQ SITES DO NOT REPORT WIND GUSTS.
* INDICATES WIND SENSORS LOCATED AT 20 FEET INSTEAD OF 33 FEET.
..............................KEY..............................
SKY/WX - SKY CONDITION/WEATHER
TMP    - TEMPERATURE IN FAHRENHEIT
DP     - DEWPOINT IN FAHRENHEIT
RH     - RELATIVE HUMIDITY IN PERCENT
WIND   - DIRECTION AND SPEED IN MILES PER HOUR (MPH)
VRB    - VARIABLE WIND DIRECTION
PRES   - MEAN SEA LEVEL PRESSURE IN INCHES OF MERCURY
         F - FALLING PRESSURE   R - RISING PRESSURE
         S - STEADY PRESSURE
VSB    - VISIBILITY IN MILES
HX     - HEAT INDEX IN FAHRENHEIT
WCI    - WIND CHILL INDEX IN FAHRENHEIT
N/A    - NOT AVAILABLE
AFB    - AIR FORCE BASE
         DAVIS-MONTHAN IS DAVIS-MONTHAN AIR FORCE BASE
CYN    - CANYON
MTNS   - MOUNTAINS
NCA    - NATIONAL CONSERVATION AREA
NR     - NEAR
VLY    - VALLEY
CONTL  - CONTINENTAL
PIMA CO DEQ - PIMA COUNTY DEPT OF ENVIRONMENTAL QUALITY



USA.gov is the U.S. government's official web portal to all federal, state and local government web resources and services.